Location: G�ndlingen
(48.0142°N, 7.6396°E)
Time: 19:01:54
(UTC+00:00)

Cosmos 332 Rocket - Pass Details

Date: 05 July 2020
Orbit: 682 x 703 km, 74.0° (Epoch: 11 August)

Event Time Altitude Azimuth Distance (km) Brightness Sun altitude
Rises 23:12:29 0° 338° (NNW) 3,057 8.5 -19.2°
Reaches altitude 10° 23:14:49 10° 340° (NNW) 2,137 7.4 -19.2°
Maximum altitude 23:19:37 76° 67° (ENE) 708 3.8 -19.2°
Enters shadow 23:21:31 37° 146° (SE) 1,066 4.3 -19.3°
